Location: El Corozo
(10.5833°N, 66.9667°W)
Time: 13:17:56
(UTC+00:00)

Delta 7925 Rocket - Pass Details

Date: 23 May 2024
Orbit: 645 x 1644 km, 26.3° (Epoch: 24 June)

Event Time Altitude Azimuth Distance (km) Brightness Sun altitude
Rises 00:15:45 0° 241° (WSW) 3,310 7.3 -21.3°
Reaches altitude 10° 00:18:26 10° 240° (WSW) 2,262 6.3 -21.9°
Maximum altitude 00:23:35 78° 155° (SSE) 688 3.1 -23.0°
Enters shadow 00:24:05 69° 98° (E) 712 3.0 -23.2°
